Location: Newark
(25.0000°N, 73.5000°E)
Time: 10:16:07
(UTC+00:00)

Altair - Pass Details

Date: 02 March 2021
Orbit: 1501 x 1683 km, 47.2° (Epoch: 15 April)

Event Time Altitude Azimuth Distance (km) Brightness Sun altitude
Rises 23:47:58 0° 284° (WNW) 4,866 - -23.2°
Reaches altitude 10° 23:54:05 10° 256° (WSW) 3,909 - -21.9°
Maximum altitude 23:57:16 12° 237° (WSW) 3,769 - -21.1°
Exits shadow 23:59:53 11° 221° (SW) 3,877 9.2 -20.5°
Drops below altitude 10° 00:00:30 10° 218° (SW) 3,928 9.3 -20.4°
Sets 00:06:47 0° 189° (S) 4,921 10.0 -19.0°
